Location: Aytr�
(46.1357°N, 1.1145°W)
Time: 06:07:48
(UTC+00:00)

Nauka - Pass Details

Date: 26 September 2021
Orbit: 418 x 423 km, 51.6° (Epoch: 15 October)

Event Time Altitude Azimuth Distance (km) Brightness Sun altitude
Rises 18:54:55 0° 284° (WNW) 2,364 ? -11.3°
Reaches altitude 10° 18:57:10 10° 295° (WNW) 1,501 ? -11.7°
Maximum altitude 19:00:12 30° 359° (N) 777 ? -12.3°
Enters shadow 19:02:34 14° 57° (ENE) 1,267 ? -12.7°
